Location: Maiden
(35.5760°N, 81.2120°W)
Time: 04:19:17
(UTC-05:00)

OTV 5 (USA 277) - Visible Passes

Search period start: 17 February 2019 00:00
Search period end: 27 February 2019 00:00
Orbit: 342 x 346 km, 54.5° (Epoch: 09 February)

Date Brightness Start Highest point End Pass type
(mag) Time Alt. Az. Time Alt. Az. Time Alt. Az.
17 Feb ? 05:42:26 85° NNE 05:42:28 85° NE 05:45:20 10° SE visible
18 Feb ? 06:06:01 20° SW 06:06:01 20° SW 06:08:11 10° S visible
21 Feb ? 18:55:26 10° SE 18:56:30 12° SE 18:56:52 11° ESE visible
22 Feb ? 19:17:08 10° SSW 19:19:54 46° SE 19:20:38 36° E visible
23 Feb ? 19:40:50 10° WSW 19:43:32 36° NW 19:44:16 30° N visible
24 Feb ? 20:06:02 10° WNW 20:07:25 13° NW 20:07:46 12° NNW visible
25 Feb ? 18:53:13 10° WSW 18:55:57 38° NW 18:58:41 10° NNE visible
26 Feb ? 19:18:20 10° WNW 19:19:50 13° NW 19:21:20 10° N visible
